Regional Weather Roundup
Issued by NWS

Home | Current Version | Previous Version | Text Only | Print | Product List | Glossary Off
Versions: 1 2 3 4 5 6 7 8 9 10 11 12 13 14 15 16 17 18 19 20 21 22 23 24 25 26 27 28

000
ASUS45 KPSR 241010
RWRAZ

ARIZONA HOURLY REGIONAL WEATHER ROUNDUP
NATIONAL WEATHER SERVICE PHOENIX AZ
300 AM MST TUE MAY 24 2016

NOTE: FAIR INDICATES FEW OR NO CLOUDS BELOW 12,000 FEET WITH NO
SIGNIFICANT WEATHER AND/OR OBSTRUCTIONS TO VISIBILITY.

AZZ001>003-036-241100-
NORTHWEST ARIZONA

CITY           SKY/WX    TMP DP  RH WIND       PRES   REMARKS
BULLHEAD CITY  CLEAR     72  34  25 SE7       29.73S
KINGMAN        CLEAR     60  28  29 S10       29.81S
$$

AZZ004>008-015-016-018-241100-
NORTH CENTRAL ARIZONA

CITY           SKY/WX    TMP DP  RH WIND       PRES   REMARKS
GRAND CANYON   PTCLDY    36  20  52 SW3       29.95S
WILLIAMS       CLEAR     48  21  34 SW13      30.02S
PRESCOTT       CLEAR     48  27  44 S6        29.91S
FLAGSTAFF      CLEAR     34  21  59 CALM      29.97S
PAYSON         CLEAR     54  21  28 SE3       29.96S
PAGE           PTCLDY    61  22  22 S10       29.83S
$$

AZZ009>014-017-241100-
NORTHEAST ARIZONA

CITY           SKY/WX    TMP DP  RH WIND       PRES   REMARKS
WINSLOW        CLEAR     44  20  38 CALM      29.93S
SAINT JOHNS    CLEAR     43  28  55 SW6       29.97F
WINDOW ROCK    CLEAR     46  17  31 CALM      30.01F
SHOW LOW       CLEAR     46  19  34 S8        30.00F
$$

AZZ023-241100-
GREATER PHOENIX AREA

CITY           SKY/WX    TMP DP  RH WIND       PRES   REMARKS
PHOENIX        CLEAR     71  29  21 E5        29.78R
BUCKEYE        PTCLDY    63  30  29 CALM      29.81R
LUKE AFB       CLEAR     70  31  23 SW14      29.77S
DEER VALLEY    CLEAR     68  28  22 CALM      29.80R
SCOTTSDALE     CLEAR     69  27  20 SE5       29.82R
MESA-GATEWAY   CLEAR     68  27  21 S6        29.82R
$$

AZZ027-028-241100-
SOUTHWEST MARICOPA COUNTY AND PINAL COUNTY

CITY           SKY/WX    TMP DP  RH WIND       PRES   REMARKS
CASA GRANDE    CLEAR     64  27  24 S6        29.83R
GILA BEND      FAIR      67  29  24 NE5       29.78R
$$

AZZ503-504-507>509-241100-
SOUTHEAST ARIZONA

CITY           SKY/WX    TMP DP  RH WIND       PRES   REMARKS
TUCSON         CLEAR     65  24  21 SE5       29.89S
DAVIS-MONTHAN  CLEAR     62  24  24 S5        29.88S
NOGALES        CLEAR     58  24  27 S6        29.95R
SIERRA VISTA   CLEAR     64  21  19 S14       29.98S
DOUGLAS        CLEAR     64  25  22 CALM      29.96S
SAFFORD        CLEAR     62  24  23 S7        29.87R
$$

AZZ020-021-025-026-031-241100-
SOUTHWEST ARIZONA

CITY           SKY/WX    TMP DP  RH WIND       PRES   REMARKS
YUMA           CLEAR     66  31  27 NW7       29.79R
$$

CAZ031-033-041-043-047-048-061-241100-
SOUTHERN CALIFORNIA

CITY           SKY/WX    TMP DP  RH WIND       PRES   REMARKS
DOWNTOWN L.A.  PTCLDY    58  52  80 CALM      29.92S
L.A. AIRPORT   MOCLDY    58  52  80 W3        29.92F
SAN DIEGO      MOCLDY    63  51  65 W12       29.96S
BURBANK        MOCLDY    57  50  77 S3        29.91F
ONTARIO        CLOUDY    57  47  69 CALM      29.92S
RIVERSIDE      PTCLDY    57  47  69 CALM      29.92F
PALM SPRINGS   CLEAR     67  43  41 VRB7      29.78S
EL CENTRO NAS  CLEAR     64  40  41 W32G40    29.79F
IMPERIAL       CLEAR     64  40  41 W20G30    29.78R
BLYTHE         CLEAR     69  47  45 S17       29.74R
NEEDLES        CLEAR     74  38  27 W8        29.73R
$$

NVZ020-UTZ003-241100-
SOUTHERN NEVADA-UTAH

CITY           SKY/WX    TMP DP  RH WIND       PRES   REMARKS
LAS VEGAS      PTCLDY    65  37  35 S12G21    29.70R
SALT LAKE CITY MOCLDY    54  44  69 N8        29.80S
$$

NMZ009-TXZ055-241100-
NEW MEXICO-WEST TEXAS

CITY           SKY/WX    TMP DP  RH WIND       PRES   REMARKS
ALBUQUERQUE    CLEAR     58  18  21 CALM      29.96R
EL PASO        PTCLDY    76  19  11 W14G23    29.91S
$$


........................KEY........................
SKY/WX - SKY CONDITION/WEATHER
TMP    - TEMPERATURE IN FAHRENHEIT
DP     - DEW POINT IN FAHRENHEIT
RH     - RELATIVE HUMIDITY IN PERCENT
WIND   - DIRECTION AND SPEED IN MILES PER HOUR (MPH)
VRB    - VARIABLE WIND DIRECTION
PRES   - MEAN SEA LEVEL PRESSURE IN INCHES OF MERCURY
         F - FALLING PRESSURE   R - RISING PRESSURE
         S - STEADY PRESSURE
VSB    - VISIBILITY IN MILES
HX     - HEAT INDEX IN FAHRENHEIT
WCI    - WIND CHILL INDEX IN FAHRENHEIT
TC     - TEMPERATURE IN CELSIUS WHICH IS ALSO KNOWN AS
         TEMPERATURE IN CENTIGRADE
AFB    - AIR FORCE BASE
         LUKE AFB IS LUKE AIR FORCE BASE
         DAVIS-MONTHAN IS DAVIS-MONTHAN AIR FORCE BASE
NAS    - NAVAL AIR STATION
         EL CENTRO NAS IS EL CENTRO NAVAL AIR STATION
N/A    - NOT AVAILABLE





USA.gov is the U.S. government's official web portal to all federal, state and local government web resources and services.